[TLELIST] Archives

 

Current TLEs

December 7th 2007 PST

HST 1 20580U 90037B 07339.57217119 .00000292 00000-0 97728-5 0 205 2 20580 028.4674 152.4855 0003911 120.0452 240.0522 15.00310243765727 ISS (ZARYA) 1 25544U 98067A 07339.51137853 .00016421 00000-0 10255-3 0 4631 2 25544 051.6400 300.5791 0000571 277.7284 187.8458 15.77041204517806 CXO 1 25867U 99040B 07339.54166667 .00000410 00000-0 10000-3 0 1422 2 25867 062.7955 085.4248 6489409 281.3529 358.8346 00.37804172 2893 ____________________________________________________________________ These 2-Line ...Continue Reading

Current TLEs

December 6th 2007 PST

HST 1 20580U 90037B 07330.85776693 .00000412 00000-0 19096-4 0 142 2 20580 028.4682 209.3145 0003443 026.7935 333.2830 15.00307838764416 ISS (ZARYA) 1 25544U 98067A 07331.53224545 .00020960 00000-0 13130-3 0 4177 2 25544 051.6414 341.7286 0001119 199.0548 299.5177 15.76767329516546 CXO 1 25867U 99040B 07331.58333333 .00000359 00000-0 10000-3 0 1392 2 25867 062.7678 085.6071 6474146 281.5199 355.2570 00.37797158 2860 ____________________________________________________________________ These 2-Line ...Continue Reading

Current TLEs

December 5th 2007 PST

HST 1 20580U 90037B 07330.85776693 .00000412 00000-0 19096-4 0 142 2 20580 028.4682 209.3145 0003443 026.7935 333.2830 15.00307838764416 ISS (ZARYA) 1 25544U 98067A 07331.53224545 .00020960 00000-0 13130-3 0 4177 2 25544 051.6414 341.7286 0001119 199.0548 299.5177 15.76767329516546 CXO 1 25867U 99040B 07331.58333333 .00000359 00000-0 10000-3 0 1392 2 25867 062.7678 085.6071 6474146 281.5199 355.2570 00.37797158 2860 ____________________________________________________________________ These 2-Line ...Continue Reading

Current TLEs

December 4th 2007 PST

HST 1 20580U 90037B 07330.85776693 .00000412 00000-0 19096-4 0 142 2 20580 028.4682 209.3145 0003443 026.7935 333.2830 15.00307838764416 ISS (ZARYA) 1 25544U 98067A 07331.53224545 .00020960 00000-0 13130-3 0 4177 2 25544 051.6414 341.7286 0001119 199.0548 299.5177 15.76767329516546 CXO 1 25867U 99040B 07331.58333333 .00000359 00000-0 10000-3 0 1392 2 25867 062.7678 085.6071 6474146 281.5199 355.2570 00.37797158 2860 ____________________________________________________________________ These 2-Line ...Continue Reading

Current TLEs

December 3rd 2007 PST

HST 1 20580U 90037B 07330.85776693 .00000412 00000-0 19096-4 0 142 2 20580 028.4682 209.3145 0003443 026.7935 333.2830 15.00307838764416 ISS (ZARYA) 1 25544U 98067A 07331.53224545 .00020960 00000-0 13130-3 0 4177 2 25544 051.6414 341.7286 0001119 199.0548 299.5177 15.76767329516546 CXO 1 25867U 99040B 07331.58333333 .00000359 00000-0 10000-3 0 1392 2 25867 062.7678 085.6071 6474146 281.5199 355.2570 00.37797158 2860 ____________________________________________________________________ These 2-Line ...Continue Reading

Current TLEs

December 2nd 2007 PST

HST 1 20580U 90037B 07330.85776693 .00000412 00000-0 19096-4 0 142 2 20580 028.4682 209.3145 0003443 026.7935 333.2830 15.00307838764416 ISS (ZARYA) 1 25544U 98067A 07331.53224545 .00020960 00000-0 13130-3 0 4177 2 25544 051.6414 341.7286 0001119 199.0548 299.5177 15.76767329516546 CXO 1 25867U 99040B 07331.58333333 .00000359 00000-0 10000-3 0 1392 2 25867 062.7678 085.6071 6474146 281.5199 355.2570 00.37797158 2860 ____________________________________________________________________ These 2-Line ...Continue Reading

Current TLEs

December 1st 2007 PST

HST 1 20580U 90037B 07330.85776693 .00000412 00000-0 19096-4 0 142 2 20580 028.4682 209.3145 0003443 026.7935 333.2830 15.00307838764416 ISS (ZARYA) 1 25544U 98067A 07331.53224545 .00020960 00000-0 13130-3 0 4177 2 25544 051.6414 341.7286 0001119 199.0548 299.5177 15.76767329516546 CXO 1 25867U 99040B 07331.58333333 .00000359 00000-0 10000-3 0 1392 2 25867 062.7678 085.6071 6474146 281.5199 355.2570 00.37797158 2860 ____________________________________________________________________ These 2-Line ...Continue Reading

Current TLEs

November 30th 2007 PST

HST 1 20580U 90037B 07330.85776693 .00000412 00000-0 19096-4 0 142 2 20580 028.4682 209.3145 0003443 026.7935 333.2830 15.00307838764416 ISS (ZARYA) 1 25544U 98067A 07331.53224545 .00020960 00000-0 13130-3 0 4177 2 25544 051.6414 341.7286 0001119 199.0548 299.5177 15.76767329516546 CXO 1 25867U 99040B 07331.58333333 .00000359 00000-0 10000-3 0 1392 2 25867 062.7678 085.6071 6474146 281.5199 355.2570 00.37797158 2860 ____________________________________________________________________ These 2-Line ...Continue Reading

Current TLEs

November 29th 2007 PST

HST 1 20580U 90037B 07330.85776693 .00000412 00000-0 19096-4 0 142 2 20580 028.4682 209.3145 0003443 026.7935 333.2830 15.00307838764416 ISS (ZARYA) 1 25544U 98067A 07331.53224545 .00020960 00000-0 13130-3 0 4177 2 25544 051.6414 341.7286 0001119 199.0548 299.5177 15.76767329516546 CXO 1 25867U 99040B 07331.58333333 .00000359 00000-0 10000-3 0 1392 2 25867 062.7678 085.6071 6474146 281.5199 355.2570 00.37797158 2860 ____________________________________________________________________ These 2-Line ...Continue Reading

Current TLEs

November 28th 2007 PST

HST 1 20580U 90037B 07330.85776693 .00000412 00000-0 19096-4 0 142 2 20580 028.4682 209.3145 0003443 026.7935 333.2830 15.00307838764416 ISS (ZARYA) 1 25544U 98067A 07331.40572756 .00021203 00000-0 13280-3 0 4169 2 25544 051.6419 342.3800 0001213 190.6460 309.2852 15.76762893516523 CXO 1 25867U 99040B 07331.58333333 .00000359 00000-0 10000-3 0 1392 2 25867 062.7678 085.6071 6474146 281.5199 355.2570 00.37797158 2860 ____________________________________________________________________ These 2-Line ...Continue Reading
  • This mailing list is a public mailing list - anyone may join or leave, at any time.
  • This mailing list is announce-only.

International Space Station (ISS) / Hubble Space Telescope (HST) / Chandra X-Ray Observatory Orbital Data via EMAIL

Privacy Policy:

Private list